AirNav   Pilot Hours Calculator
 
 1184 users online  

M49 Jolly Fisherman Seaplane Base
Waubun, Minnesota, USA

GOING TO WAUBUN?


FAA INFORMATION EFFECTIVE 22 APRIL 2021

Location

FAA Identifier: M49
Lat/Long: 47-08-34.8540N 095-31-44.1060W
47-08.580900N 095-31.735100W
47.1430150,-95.5289183
(estimated)
Elevation: 1499 ft. / 457 m (estimated)
Variation: 05E (1985)
From city: 17 miles E of WAUBUN, MN
Time zone: UTC -5 (UTC -6 during Standard Time)
Zip code: 56589

Seaplane Base Operations

Seaplane Base use: Open to the public
Activation date: 03/1983
Control tower: no
ARTCC: MINNEAPOLIS CENTER
FSS: PRINCETON FLIGHT SERVICE STATION
NOTAMs facility: PNM (NOTAM-D service available)
Attendance: MAY-OCT DAYLIGHT HOURS, NOV-APR/UNATNDD/
Wind indicator: yes
Segmented circle: no

Seaplane Base Communications

CTAF: 122.9
WX AWOS-3PT at 3N8 (18 nm NW): 121.125 (218-936-2507)

Nearby radio navigation aids

VOR radial/distance  VOR name  Freq  Var
DTLr036/24.0DETROIT LAKES VOR/DME111.2002E
IDJr227/32.9LAKE BEMIDJI VOR/DME110.0001E

Seaplane Base Services

Parking: tiedowns
Airframe service: NONE
Powerplant service: NONE
Bottled oxygen: NONE
Bulk oxygen: NONE

Runway Information

Runway 8W/26W

Dimensions: 5000 x 500 ft. / 1524 x 152 m
Surface: water
RUNWAY 8W  RUNWAY 26W
Traffic pattern: leftleft

Seaplane Base Ownership and Management from official FAA records

Ownership: Privately-owned
Owner: ANNE BUELOW
39126 JOLLY FISHERMAN ROAD
WAUBUN, MN 56589
Phone 701-388-8042
Manager: ANNE BUELOW
39126 JOLLY FISHERMAN ROAD
WAUBUN, MN 56589
Phone 701-388-8042
EMAIL ADDRESS: ANNE.JOLLYFISH@GMAIL.COM (ALL LOWER CASE)

Seaplane Base Operational Statistics

Aircraft operations: 40/year *
75% local general aviation
25% transient general aviation
* for 12-month period ending 31 August 2018

Additional Remarks

FOR CD CTC MINNEAPOLIS ARTCC AT 651-463-5588.

Instrument Procedures

There are no published instrument procedures at M49.

Some nearby airports with instrument procedures:

3N8 - Mahnomen County Airport (18 nm NW)
KPKD - Park Rapids Municipal Airport-Konshok Field (24 nm SE)
KDTL - Detroit Lakes Airport-Wething Field (24 nm SW)
KFSE - Fosston Municipal Airport-Anderson Field (29 nm N)
16D - Perham Municipal Airport (32 nm S)
 
Loc | Ops | Rwys | IFR | FBO | Links
Com | Nav | Svcs | Stats | Notes
Area around M49 (Jolly Fisherman Seaplane Base)
 
Road maps at: MapQuest Bing Google
 
Aerial photo
WARNING: Photo may not be current or correct
Aerial photo of M49 (Jolly Fisherman Seaplane Base)
Photo by Pete Peterson
Taken in September 2007

Do you have a better or more recent aerial photo of Jolly Fisherman Seaplane Base that you would like to share? If so, please send us your photo.

 
Sectional chart

 
Airport distance calculator
Flying to Jolly Fisherman Seaplane Base? Find the distance to fly.

From to M49

Sunrise and sunset
Times for 08-May-2021
 Local
(UTC-5)
 Zulu
(UTC)
Morning civil twilight05:2110:21
Sunrise05:5610:56
Sunset20:4101:41
Evening civil twilight21:1602:16

Current date and time
Zulu (UTC)  08-May-2021 14:44:40
Local (UTC-5)  08-May-2021 09:44:40
 
METAR
K3N8 
18nm NW 
081435Z AUTO 07003KT 10SM CLR 11/M05 A3010 RMK AO2 T01081052
KPKD 
24nm SE 
081353Z AUTO 08004KT 10SM CLR 10/M03 A3010 RMK AO2 SLP200 T01001028
KDTL 
24nm SW 
081435Z AUTO 13007KT 10SM CLR 11/M04 A3010 RMK AO2
KFSE 
28nm N 
081435Z AUTO 00000KT 10SM CLR 09/M07 A3012 RMK AO2
KBJI 
33nm NE 
081435Z AUTO 00000KT 10SM CLR 10/M02 A3010 RMK AO2 T00961023
TAF
KBJI 
33nm NE 
081120Z 0812/0912 00000KT P6SM SCT250 FM082200 02007KT P6SM BKN250 FM090800 05005KT P6SM FEW250
NOTAMs
Click for the latest NOTAMs
NOTAMs are issued by the DoD/FAA and will open in a separate window not controlled by AirNav.

 

 
 

Would you like to see your business listed on this page?

 If your business provides an interesting product or service to pilots, flight crews, aircraft, or users of the Jolly Fisherman Seaplane Base, you should consider listing it here.  To start the listing process, click on the button below
 
Add a business
 

Other Pages about Jolly Fisherman Seaplane Base

Update a link
 
Copyright © AirNav, LLC. All rights reserved. Privacy Policy  Contact